CAPE
0 0 0 0 1 1 0 0 0 0 0 0 0 0 0 0 0 0 0 0 0 0 0 0 0 0 0 0 0 0 0 0 0 0 0 0 0 0 0 0 0 0 0 0 0 15 70
0 0 1 0 1 2 1 0 0 0 0 0 0 0 0 0 0 0 0 0 0 0 0 0 0 0 0 0 0 0 0 0 0 0 0 0 0 0 0 0 0 0 0 0 0 0 0
0 2 0 3 1 1 1 0 0 0 0 0 0 0 0 0 0 0 0 0 0 0 0 0 0 0 0 0 0 0 0 0 0 0 0 0 0 0 0 0 0 0 0 0 0 0 0
0 0 1 1 0 2 1 0 0 0 0 0 0 0 0 0 0 0 0 0 0 0 0 0 0 0 0 0 0 0 0 0 0 0 0 0 0 0 0 0 0 0 0 0 0 0 0
1 1 0 1 0 2 1 0 0 0 0 0 0 0 0 0 0 0 0 0 0 0 0 0 0 0 0 0 0 0 0 0 0 0 0 0 0 0 0 0 0 0 0 0 0 0 0
2 1 1 1 2 1 0 0 0 0 0 0 0 0 0 0 0 0 0 0 0 0 0 0 0 0 0 0 0 0 0 0 0 0 0 0 0 0 0 0 0 0 0 0 0 13 0
3 1 0 3 1 2 0 0 0 0 0 0 0 0 0 0 0 0 0 0 0 0 0 0 0 0 0 0 0 0 0 0 0 0 0 0 0 0 0 0 0 0 0 0 0 0 1
4 3 4 3 0 1 0 0 0 0 0 0 0 0 0 0 0 0 0 0 0 0 0 0 0 0 0 0 0 0 0 0 0 0 0 0 0 0 0 0 0 0 0 0 0 0 0
6 3 5 3 1 1 0 0 0 0 0 0 0 0 0 0 0 0 0 0 0 0 0 0 0 0 0 0 0 0 0 0 0 0 0 0 0 0 0 0 0 0 0 0 0 0 0
1 2 2 1 0 0 0 0 0 0 0 0 0 0 0 0 0 0 0 0 0 0 0 0 0 0 0 0 0 0 0 0 0 0 0 0 0 0 0 0 0 0 0 0 0 0 0
0 1 1 0 0 0 0 0 0 0 0 0 0 0 0 0 0 0 0 0 0 0 0 0 0 0 0 0 0 0 0 0 0 0 0 0 0 0 0 0 0 0 0 0 0 0 0
2 5 5 1 0 0 0 0 0 0 0 0 0 0 0 0 0 0 0 0 0 0 0 0 0 0 0 0 0 0 0 0 0 0 0 0 0 0 0 0 0 0 0 0 0 0 0
3 2 2 1 0 0 0 0 0 0 0 0 0 0 0 0 0 0 0 0 0 0 0 0 0 0 0 0 0 0 0 0 0 0 0 0 0 0 0 0 0 0 0 0 0 0 0
1 3 1 3 0 0 0 0 0 0 0 0 0 0 0 0 0 0 0 0 0 0 0 0 0 0 0 0 0 0 0 0 0 0 0 0 0 0 0 0 0 0 0 0 0 0 0
2 1 1 0 0 0 0 0 0 0 0 0 0 0 0 0 0 0 0 0 0 0 0 0 0 0 0 0 0 0 0 0 0 0 0 0 0 0 0 0 0 0 0 0 0 0 0
7 8 7 0 0 0 0 0 0 0 0 0 0 0 0 0 0 0 0 0 0 0 0 0 0 0 0 0 0 0 0 0 0 0 0 0 0 0 0 0 0 0 0 0 0 0 0
5 2 18 2 0 0 0 0 0 0 0 0 0 0 0 0 0 0 0 0 0 0 0 0 0 0 0 0 0 0 0 0 0 0 0 0 0 0 0 0 0 0 0 0 0 0 0
2 8 2 0 0 2 0 0 0 0 0 0 0 0 0 0 0 0 0 0 0 0 0 0 0 0 0 0 0 0 0 0 0 0 0 0 0 0 0 0 0 0 0 0 0 0 0
3 17 1 2 5 1 0 0 0 0 0 0 0 0 0 0 0 0 0 0 0 0 0 0 0 0 0 0 0 0 0 0 0 0 0 0 0 0 0 0 0 0 0 0 0 0 0
11 7 5 7 2 0 0 0 0 0 0 0 0 0 0 0 0 0 0 0 0 0 0 0 0 0 0 0 0 0 0 0 0 0 0 0 0 0 0 0 2 2 0 0 0 0 0
3 8 5 3 1 0 0 0 0 0 0 0 0 0 0 0 0 0 0 0 0 0 0 0 0 0 0 0 0 0 0 0 0 0 0 0 0 0 0 0 4 14 8 2 0 0 0
1 14 8 3 1 0 0 0 0 0 0 0 0 0 0 0 0 0 0 0 0 0 0 0 0 0 0 0 0 0 0 0 0 0 0 0 0 0 0 0 0 9 2 3 2 46 0
1 10 9 6 2 1 2 2 0 0 0 0 0 0 0 0 0 0 0 0 0 0 0 0 0 0 0 0 0 0 0 0 0 0 0 27 0 0 0 0 0 0 6 48 31 69 13
1 5 6 4 4 3 3 5 3 0 0 0 0 0 0 0 0 0 0 0 0 0 0 0 0 0 0 0 0 0 0 0 0 0 0 12 145 0 0 0 0 0 46 20 155 441 143
4 2 5 5 4 6 7 3 2 1 0 0 0 0 0 0 0 0 0 0 0 0 0 0 0 0 0 0 0 0 0 0 0 0 0 0 13 64 4 0 0 0 20 97 145 454 48
1 1 3 9 12 13 7 4 2 3 0 0 0 0 0 0 0 0 0 0 0 0 0 0 0 0 0 0 0 0 0 0 0 0 0 0 0 0 13 1 0 2 90 112 60 95 119
1 1 12 17 11 4 5 2 4 4 0 0 0 0 0 0 0 0 0 0 0 0 0 1 0 0 0 0 0 0 0 0 0 0 0 0 0 0 0 0 0 391 514 241 0 0 586
2 3 0 0 5 9 1 1 2 3 2 0 0 0 0 0 0 0 0 0 0 0 0 0 12 9 17 0 0 0 0 0 0 0 0 0 0 0 0 0 0 412 388 267 772 1030 650
1 0 6 3 5 4 2 1 1 2 2 0 0 0 0 0 0 0 0 0 0 0 0 0 0 0 36 2 0 0 0 0 4 0 0 0 0 0 35 31 113 231 559 843 757 848 698
CIN
-0 -0 -0 -0 -0 -0 -0 -0 -0 -0 -0 -0 -0 -0 -0 -0 -0 -0 -0 -0 -0 -0 -0 -0 -0 -0 -0 -0 -0 -0 -0 -0 -0 -0 -0 -0 -0 -0 -0 -0 -0 -0 -0 -0 -0 -60 -53
-0 -0 -0 -0 -0 -0 -0 -0 -0 -0 -0 -0 -0 -0 -0 -0 -0 -0 -0 -0 -0 -0 -0 -0 -0 -0 -0 -0 -0 -0 -0 -0 -0 -0 -0 -0 -0 -0 -0 -0 -0 -0 -0 -0 -0 -0 -0
-0 -0 -0 -0 -0 -0 -0 -0 -0 -0 -0 -0 -0 -0 -0 -0 -0 -0 -0 -0 -0 -0 -0 -0 -0 -0 -0 -0 -0 -0 -0 -0 -0 -0 -0 -0 -0 -0 -0 -0 -0 -0 -0 -0 -0 -0 -0
-0 -0 -0 -0 -0 -0 -0 -0 -0 -0 -0 -0 -0 -0 -0 -0 -0 -0 -0 -0 -0 -0 -0 -0 -0 -0 -0 -0 -0 -0 -0 -0 -0 -0 -0 -0 -0 -0 -0 -0 -0 -0 -0 -0 -0 -0 -0
-0 -0 -0 -0 -0 -0 -0 -0 -0 -0 -0 -0 -0 -0 -0 -0 -0 -0 -0 -0 -0 -0 -0 -0 -0 -0 -0 -0 -0 -0 -0 -0 -0 -0 -0 -0 -0 -0 -0 -0 -0 -0 -0 -0 -0 -0 -0
-0 -0 -1 -0 -0 -0 -0 -0 -0 -0 -0 -0 -0 -0 -0 -0 -0 -0 -0 -0 -0 -0 -0 -0 -0 -0 -0 -0 -0 -0 -0 -0 -0 -0 -0 -0 -0 -0 -0 -0 -0 -0 -0 -0 -0 -140 -0
-0 -0 -0 -0 -0 -0 -0 -0 -0 -0 -0 -0 -0 -0 -0 -0 -0 -0 -0 -0 -0 -0 -0 -0 -0 -0 -0 -0 -0 -0 -0 -0 -0 -0 -0 -0 -0 -0 -0 -0 -0 -0 -0 -0 -0 -0 -32
-0 -0 -0 -0 -0 -0 -0 -0 -0 -0 -0 -0 -0 -0 -0 -0 -0 -0 -0 -0 -0 -0 -0 -0 -0 -0 -0 -0 -0 -0 -0 -0 -0 -0 -0 -0 -0 -0 -0 -0 -0 -0 -0 -0 -0 -0 -0
-0 -0 -0 -0 -0 -0 -0 -0 -0 -0 -0 -0 -0 -0 -0 -0 -0 -0 -0 -0 -0 -0 -0 -0 -0 -0 -0 -0 -0 -0 -0 -0 -0 -0 -0 -0 -0 -0 -0 -0 -0 -0 -0 -0 -0 -0 -0
-0 -0 -0 -0 -0 -0 -0 -0 -0 -0 -0 -0 -0 -0 -0 -0 -0 -0 -0 -0 -0 -0 -0 -0 -0 -0 -0 -0 -0 -0 -0 -0 -0 -0 -0 -0 -0 -0 -0 -0 -0 -0 -0 -0 -0 -0 -0
-0 -0 -0 -0 -0 -0 -0 -0 -0 -0 -0 -0 -0 -0 -0 -0 -0 -0 -0 -0 -0 -0 -0 -0 -0 -0 -0 -0 -0 -0 -0 -0 -0 -0 -0 -0 -0 -0 -0 -0 -0 -0 -0 -0 -0 -0 -0
-0 -0 -0 -0 -0 -0 -0 -0 -0 -0 -0 -0 -0 -0 -0 -0 -0 -0 -0 -0 -0 -0 -0 -0 -0 -0 -0 -0 -0 -0 -0 -0 -0 -0 -0 -0 -0 -0 -0 -0 -0 -0 -0 -0 -0 -0 -0
-0 -0 -0 -0 -0 -0 -0 -0 -0 -0 -0 -0 -0 -0 -0 -0 -0 -0 -0 -0 -0 -0 -0 -0 -0 -0 -0 -0 -0 -0 -0 -0 -0 -0 -0 -0 -0 -0 -0 -0 -0 -0 -0 -0 -0 -0 -0
-0 -0 -0 -0 -0 -0 -0 -0 -0 -0 -0 -0 -0 -0 -0 -0 -0 -0 -0 -0 -0 -0 -0 -0 -0 -0 -0 -0 -0 -0 -0 -0 -0 -0 -0 -0 -0 -0 -0 -0 -0 -0 -0 -0 -0 -0 -0
-0 -0 -0 -0 -0 -0 -0 -0 -0 -0 -0 -0 -0 -0 -0 -0 -0 -0 -0 -0 -0 -0 -0 -0 -0 -0 -0 -0 -0 -0 -0 -0 -0 -0 -0 -0 -0 -0 -0 -0 -0 -0 -0 -0 -0 -0 -0
-0 -0 -0 -0 -0 -0 -0 -0 -0 -0 -0 -0 -0 -0 -0 -0 -0 -0 -0 -0 -0 -0 -0 -0 -0 -0 -0 -0 -0 -0 -0 -0 -0 -0 -0 -0 -0 -0 -0 -0 -0 -0 -0 -0 -0 -0 -0
-0 -0 -0 -0 -0 -0 -0 -0 -0 -0 -0 -0 -0 -0 -0 -0 -0 -0 -0 -0 -0 -0 -0 -0 -0 -0 -0 -0 -0 -0 -0 -0 -0 -0 -0 -0 -0 -0 -0 -0 -0 -0 -0 -0 -0 -0 -0
-0 -0 -0 -0 -0 -0 -0 -0 -0 -0 -0 -0 -0 -0 -0 -0 -0 -0 -0 -0 -0 -0 -0 -0 -0 -0 -0 -0 -0 -0 -0 -0 -0 -0 -0 -0 -0 -0 -0 -0 -0 -0 -0 -0 -0 -0 -0
-0 -0 -0 -0 -0 -0 -0 -0 -0 -0 -0 -0 -0 -0 -0 -0 -0 -0 -0 -0 -0 -0 -0 -0 -0 -0 -0 -0 -0 -0 -0 -0 -0 -0 -0 -0 -0 -0 -0 -0 -0 -0 -0 -0 -0 -0 -0
-0 -0 -0 -0 -0 -0 -0 -0 -0 -0 -0 -0 -0 -0 -0 -0 -0 -0 -0 -0 -0 -0 -0 -0 -0 -0 -0 -0 -0 -0 -0 -0 -0 -0 -0 -0 -0 -0 -0 -0 -36 -39 -0 -0 -0 -0 -0
-0 -0 -0 -0 -0 -0 -0 -0 -0 -0 -0 -0 -0 -0 -0 -0 -0 -0 -0 -0 -0 -0 -0 -0 -0 -0 -0 -0 -0 -0 -0 -0 -0 -0 -0 -0 -0 -0 -0 -0 -29 -41 -68 -60 -0 -0 -0
-0 -0 -0 -0 -0 -0 -0 -0 -0 -0 -0 -0 -0 -0 -0 -0 -0 -0 -0 -0 -0 -0 -0 -0 -0 -0 -0 -0 -0 -0 -0 -0 -0 -0 -0 -0 -0 -0 -0 -0 -0 -33 -36 -65 -55 -36 -0
-0 -0 -0 -0 -0 -0 -0 -0 -0 -0 -0 -0 -0 -0 -0 -0 -0 -0 -0 -0 -0 -0 -0 -0 -0 -0 -0 -0 -0 -0 -0 -0 -0 -0 -0 -84 -0 -0 -0 -0 -0 -0 -12 -30 -15 -14 -14
-0 -0 -0 -0 -0 -0 -0 -0 -0 -0 -0 -0 -0 -0 -0 -0 -0 -0 -0 -0 -0 -0 -0 -0 -0 -0 -0 -0 -0 -0 -0 -0 -0 -0 -0 -71 -55 -0 -0 -0 -0 -0 -57 -42 -32 -49 -83
-0 -0 -0 -0 -0 -0 -0 -0 -0 -0 -0 -0 -0 -0 -0 -0 -0 -0 -0 -0 -0 -0 -0 -0 -0 -0 -0 -0 -0 -0 -0 -0 -0 -0 -0 -0 -48 -33 -33 -0 -0 -15 -36 -27 -14 -22 -162
-0 -0 -0 -0 -1 -0 -0 -0 -0 -0 -0 -0 -0 -0 -0 -0 -0 -0 -0 -0 -0 -0 -0 -0 -0 -0 -0 -0 -0 -0 -0 -0 -0 -0 -0 -0 -0 -0 -47 -2 -0 -74 -69 -59 -50 -13 -140
-0 -0 -0 -0 -0 -0 -0 -0 -0 -0 -0 -0 -0 -0 -0 -0 -0 -0 -0 -0 -0 -0 -0 -66 -0 -21 -0 -0 -0 -0 -0 -0 -0 -0 -0 -0 -0 -0 -0 -0 -0 -90 -94 -55 -0 -0 -137
-0 -0 -0 -0 -0 -0 -0 -0 -1 -0 -0 -0 -0 -0 -0 -0 -0 -0 -0 -0 -0 -0 -0 -0 -94 -30 -125 -0 -0 -0 -0 -0 -0 -0 -0 -0 -0 -0 -0 -0 -0 -187 -66 -26 -77 -122 -151
-0 -0 -0 -0 -0 -0 -0 -0 -0 -1 -0 -0 -0 -0 -0 -0 -0 -0 -0 -0 -0 -0 -0 -0 -0 -0 -100 -15 -0 -0 -0 -1 -23 -0 -0 -0 -0 -0 -63 -77 -114 -206 -163 -145 -156 -131 -169
Wind_Speed
19 19 20 20 21 21 21 22 22 22 23 23 23 24 25 25 25 25 25 25 25 25 24 23 21 20 18 18 19 12 10 8 9 8 10 9 14 10 12 15 20 22 19 26 19 6 17
20 20 20 21 21 22 22 22 23 23 24 24 24 25 25 26 26 26 26 26 26 26 24 23 21 20 18 20 14 9 8 9 10 7 9 9 6 12 20 21 20 20 25 25 19 21 19
20 20 21 21 22 22 22 23 23 24 24 25 25 26 26 26 27 27 28 28 28 26 25 23 21 20 19 21 15 9 8 12 12 7 11 17 20 15 20 23 21 24 25 26 17 14 12
20 20 20 21 22 22 22 23 23 24 25 26 26 27 27 28 28 28 29 29 29 27 24 20 19 19 22 20 7 10 12 15 15 9 18 23 23 19 18 22 23 23 19 21 14 8 10
19 20 20 21 21 22 22 23 23 24 25 26 27 27 28 28 28 29 30 30 28 23 18 18 18 18 21 16 13 12 11 14 12 21 22 24 21 19 20 17 19 17 17 19 25 22 10
20 20 21 21 21 22 22 23 24 24 25 26 27 28 29 29 29 29 30 27 19 15 16 18 21 21 20 18 17 7 11 14 15 16 20 20 19 20 17 13 14 12 16 24 19 23 20
20 21 21 22 22 22 23 23 24 25 25 27 28 29 30 30 29 29 27 20 20 20 21 22 18 20 22 21 11 11 5 14 19 18 20 21 21 20 15 5 3 20 23 26 11 4 15
21 22 23 23 23 24 25 25 25 26 26 29 29 29 30 30 30 29 20 19 19 23 29 31 35 34 34 25 20 8 3 14 15 20 20 22 26 24 17 18 21 28 30 24 16 10 10
22 23 23 24 25 25 26 27 27 27 29 29 29 30 30 31 30 20 22 21 25 24 26 30 22 19 18 15 22 10 3 13 18 21 22 23 19 20 18 27 25 25 25 27 26 29 9
24 24 25 25 26 26 27 28 28 29 30 30 30 30 30 32 22 24 21 26 26 22 26 25 21 25 13 14 26 11 4 11 20 22 22 27 30 30 29 25 23 24 23 22 27 25 21
25 25 25 26 27 28 29 29 30 31 32 32 32 31 30 27 26 22 24 27 26 17 27 20 14 14 9 9 15 12 7 13 18 19 18 23 23 23 27 28 21 25 25 24 23 19 22
25 26 26 27 28 29 30 31 32 33 33 34 34 33 31 21 24 22 27 25 17 21 24 20 13 11 7 10 15 14 8 15 19 24 28 35 33 29 28 32 32 24 25 24 22 21 27
26 27 27 28 29 29 30 31 33 34 35 36 36 35 30 23 20 16 24 16 20 22 21 18 18 12 11 13 16 19 13 11 16 20 32 34 37 36 33 34 24 20 23 24 24 23 21
27 27 27 28 29 30 31 32 33 34 36 37 37 35 25 21 20 19 15 16 23 21 20 20 22 22 17 17 19 18 16 12 15 20 24 26 30 22 19 20 19 21 18 16 20 24 28
27 27 28 28 29 30 31 33 34 35 36 37 34 26 24 22 16 15 13 21 20 18 19 22 21 17 23 24 19 16 17 10 8 6 17 21 28 20 22 24 25 22 20 19 18 21 27
27 27 28 28 29 30 31 33 34 35 37 35 29 26 25 14 5 12 17 23 22 18 21 22 19 17 20 20 23 21 23 18 17 9 8 20 33 36 34 30 25 9 15 19 19 22 29
28 28 28 29 29 30 30 32 33 34 36 31 22 22 19 4 8 18 23 26 26 23 22 22 23 24 23 20 22 21 19 25 11 13 9 11 20 38 25 24 23 13 15 17 18 16 22
28 28 29 29 30 30 30 31 32 33 33 23 19 19 10 3 16 22 29 24 24 26 28 27 25 27 27 26 27 27 24 23 27 19 16 10 16 36 38 29 22 22 25 15 18 20 17
28 29 29 29 29 29 30 32 32 31 28 23 21 19 16 12 22 24 26 28 29 33 31 25 25 24 27 26 27 25 27 24 23 19 19 16 22 27 36 28 24 23 19 19 22 21 14
28 28 28 28 29 30 31 32 32 32 30 18 17 18 17 22 21 23 27 31 33 29 31 31 33 34 33 33 28 29 30 24 28 26 22 14 20 15 13 23 20 24 27 26 20 21 17
28 28 28 28 29 30 31 31 32 32 28 15 16 18 18 24 24 27 26 27 31 32 26 25 29 32 32 31 33 35 35 32 28 20 20 18 19 18 18 19 21 25 27 25 25 23 18
28 27 27 28 29 30 30 30 30 31 25 16 18 20 22 24 25 26 24 25 28 30 30 32 32 34 34 33 32 37 34 30 26 24 21 19 22 21 24 23 23 26 30 25 29 33 28
28 27 27 28 29 29 29 28 28 28 22 17 19 20 20 24 25 26 23 27 28 28 27 26 30 33 33 35 33 31 30 26 24 25 25 22 23 24 29 24 27 31 25 22 26 18 14
27 27 27 28 28 28 27 26 25 25 23 18 19 20 21 26 26 26 30 28 30 27 28 29 28 26 26 28 24 25 28 28 25 23 19 24 22 23 27 26 40 27 25 26 21 23 21
26 26 26 26 26 25 25 25 24 23 23 20 19 19 20 24 26 28 29 29 29 29 26 25 24 27 31 25 26 29 31 31 30 27 25 20 22 24 26 27 31 32 25 24 21 22 16
26 25 25 25 25 24 24 23 22 22 23 21 18 19 19 23 23 26 28 26 28 31 30 26 27 27 23 22 25 30 31 29 29 27 24 23 22 24 22 26 30 22 27 31 18 20 9
25 25 25 24 24 24 22 21 20 21 22 21 18 20 19 22 25 23 24 27 25 25 29 28 28 26 23 24 27 27 30 26 31 29 28 32 32 32 29 29 26 26 29 24 20 25 12
26 25 25 24 24 23 22 22 21 20 20 20 19 20 19 20 28 24 25 25 26 24 26 27 24 25 26 27 28 29 28 27 30 27 30 32 31 34 28 31 36 28 22 18 17 20 16
26 25 25 24 24 23 23 22 21 21 20 19 20 20 22 19 24 25 32 31 26 26 24 23 21 21 21 26 26 28 30 26 26 32 25 28 26 26 26 23 20 20 16 15 16 17 16
Wind_Direction
316 316 314 312 310 308 306 305 303 302 301 301 301 299 299 298 296 294 294 293 292 295 297 296 294 293 305 290 276 332 357 354 337 359 74 28 281 340 303 281 268 252 251 294 289 243 225
316 315 314 313 312 309 308 305 303 302 301 302 302 298 298 298 296 295 292 288 287 289 293 297 293 293 301 282 315 358 344 325 311 348 326 324 310 310 242 264 295 267 269 281 349 341 352
320 316 314 313 312 310 308 307 304 303 302 302 301 298 297 295 294 295 291 287 283 282 288 294 296 296 292 280 303 5 347 297 298 356 305 271 258 322 287 272 280 260 291 301 354 13 23
319 314 312 312 311 309 307 306 305 304 303 302 301 298 297 295 293 294 290 287 281 278 288 296 298 296 277 285 346 320 300 284 278 308 278 254 246 236 313 280 272 291 325 334 15 12 4
318 312 311 310 309 307 304 304 303 302 303 302 302 298 296 294 293 293 290 286 281 291 301 302 298 296 275 291 297 305 311 291 293 258 263 245 289 297 296 322 317 324 328 330 325 1 38
320 316 314 312 309 307 304 303 302 300 303 303 300 300 296 294 293 294 291 292 309 319 305 300 284 288 281 286 281 315 301 290 292 292 280 282 293 294 308 328 333 341 337 327 344 333 5
322 320 317 311 308 307 305 303 301 299 301 304 299 298 297 294 292 295 298 302 296 295 295 281 292 281 273 277 313 297 325 289 280 289 280 283 291 293 316 356 24 318 321 322 354 32 1
324 321 319 315 311 309 308 304 303 306 302 302 298 297 295 291 287 291 305 300 305 298 280 271 245 255 231 261 284 314 339 287 287 281 285 285 279 273 314 311 303 292 294 322 340 358 2
326 322 318 315 315 313 310 308 307 303 301 299 297 295 293 289 282 294 287 292 292 306 290 281 284 280 274 281 278 285 290 287 282 279 280 282 288 303 313 289 294 299 307 308 314 314 1
324 322 320 318 315 313 311 309 303 302 301 298 296 294 293 291 284 284 282 292 298 313 288 288 288 275 269 278 276 279 220 291 282 282 283 279 277 275 281 297 304 307 311 314 310 326 329
325 322 321 319 316 313 310 308 306 304 302 299 296 294 292 293 282 283 288 294 297 318 282 304 303 309 272 249 310 278 251 276 282 286 285 285 291 292 288 289 307 300 306 309 317 332 327
325 322 321 319 316 313 310 308 306 304 302 299 295 293 295 299 291 285 289 294 308 290 285 301 305 301 288 259 279 310 268 275 285 283 279 272 277 285 288 280 284 300 300 304 316 324 312
325 323 321 320 318 314 311 309 307 304 301 298 294 289 291 294 287 298 296 300 283 279 298 300 293 287 278 281 278 273 283 258 277 281 273 273 267 269 275 270 293 298 301 297 303 312 318
326 324 322 321 320 317 314 311 308 305 303 299 291 285 289 287 285 291 298 279 274 287 282 299 299 282 273 285 286 272 274 265 272 282 283 282 276 274 280 280 295 295 297 300 306 309 300
328 324 322 321 320 319 317 314 311 308 304 300 292 292 285 280 274 279 274 267 277 284 288 294 297 292 279 271 284 268 266 249 253 225 289 286 272 280 273 282 288 289 295 300 304 312 308
329 327 326 323 320 319 318 317 315 312 308 303 294 287 277 283 257 267 266 267 275 284 292 289 284 294 289 285 271 271 268 266 268 220 265 291 263 251 251 284 296 247 309 295 304 302 289
329 325 327 326 323 320 318 319 318 315 313 305 296 284 291 240 265 262 262 265 271 280 291 285 278 281 282 286 275 278 280 275 260 264 227 284 279 237 281 286 283 272 281 306 304 313 309
331 328 325 323 323 321 323 321 320 319 317 320 293 278 284 213 268 266 262 269 278 278 277 279 277 274 274 278 270 271 273 285 292 220 267 214 287 247 234 273 292 290 267 294 307 305 307
332 330 328 327 328 328 324 323 322 321 323 306 287 279 269 266 271 269 271 270 271 271 270 271 271 276 276 275 274 272 266 281 296 300 281 267 268 271 257 272 292 289 288 285 302 303 307
329 332 330 331 329 328 327 324 322 319 315 313 289 275 272 265 279 277 275 270 267 273 273 268 264 268 266 264 271 265 258 275 284 291 295 292 266 260 260 270 294 286 277 286 304 296 310
325 327 328 329 326 326 326 325 324 322 316 316 295 280 285 271 271 279 280 276 271 268 272 275 272 268 268 267 264 257 255 266 278 294 296 296 275 274 274 277 282 286 289 294 299 301 306
324 327 327 326 325 326 325 325 327 326 314 317 292 284 284 278 278 279 276 274 272 270 270 265 270 268 264 266 263 251 259 267 272 287 292 298 278 280 272 276 279 279 278 297 287 272 307
321 320 321 322 323 324 325 325 328 331 328 311 304 298 287 279 280 276 273 279 275 281 270 274 276 269 269 263 265 262 263 269 280 280 280 288 282 278 267 280 277 268 280 289 287 320 328
319 314 312 314 317 320 320 321 325 329 330 312 307 298 287 276 275 275 277 280 278 280 270 273 280 272 278 278 271 267 265 267 271 278 287 280 285 278 275 276 250 271 279 290 305 310 317
316 311 311 313 315 315 315 316 318 320 320 310 306 301 292 280 279 277 277 278 278 278 275 275 282 282 282 278 265 261 261 262 261 267 271 283 281 278 273 273 271 268 274 289 303 304 331
306 306 306 309 308 309 311 307 310 312 314 308 305 309 298 286 275 282 275 280 275 272 268 268 283 286 283 274 266 256 254 258 260 262 267 274 281 275 277 274 270 279 278 282 297 297 329
302 300 300 306 304 302 301 298 297 302 306 303 297 308 307 291 281 287 280 275 280 278 267 271 277 275 285 268 263 261 257 260 259 262 262 263 265 264 270 270 278 284 282 292 284 290 297
298 296 296 298 296 297 297 298 295 292 296 297 272 290 319 303 282 284 284 279 279 276 271 273 269 272 272 261 261 259 262 262 261 269 264 263 265 263 268 269 265 291 288 289 295 292 289
293 292 292 294 293 291 291 292 294 293 289 289 281 280 295 315 292 292 272 272 273 272 275 277 268 274 275 265 266 264 259 265 264 256 273 264 267 268 268 271 286 295 300 297 298 302 297